Location: Malvern Link
(52.1333°N, 2.3000°W)
Time: 05:56:08
(UTC+00:00)

Envisat - Pass Details

Date: 28 January 2022
Orbit: 764 x 765 km, 98.2° (Epoch: 25 May)

Event Time Altitude Azimuth Distance (km) Brightness Sun altitude
Rises 17:42:17 0° 220° (SW) 3,222 7.4 -8.3°
Reaches altitude 10° 17:45:52 10° 247° (WSW) 2,302 7.2 -8.8°
Maximum altitude 17:48:17 13° 275° (W) 2,078 6.4 -9.1°
Drops below altitude 10° 17:50:44 10° 304° (NW) 2,310 6.1 -9.5°
Sets 17:54:21 0° 331° (NNW) 3,243 6.4 -10.0°
